GW3729 Weather Reports


time (UTC)temp
C
wind
direction
speed
KPH
gust
KPH
rain 1hr
cm
rain 24hr
cm
rain mn
cm
humidity
%
barometer
mb
20260507183549 18 196 1.6 8.0 0.00 0.00 0.00 40 1009.2
20260507183046 19 301 17.7 17.7 0.00 0.00 0.00 38 1009.2
20260507182542 19 245 6.4 8.0 0.00 0.00 0.00 40 1009.0
20260507182038 18 94 4.8 6.4 0.00 0.00 0.00 40 1009.3
20260507181536 18 100 4.8 9.7 0.00 0.00 0.00 41 1009.2
20260507181031 18 114 0.0 9.7 0.00 0.00 0.00 41 1009.3
20260507180528 17 131 4.8 14.5 0.00 0.00 0.00 45 1009.7
20260507180025 18 6 3.2 11.3 0.00 0.00 0.00 42 1009.9
20260507175521 17 299 6.4 9.7 0.00 0.00 0.00 44 1009.5
20260507175019 17 286 3.2 8.0 0.00 0.00 0.00 39 1009.8
20260507174516 18 298 3.2 6.4 0.00 0.00 0.00 48 1009.7
20260507174014 17 59 3.2 14.5 0.00 0.00 0.00 43 1010.1
20260507173510 18 15 0.0 9.7 0.00 0.00 0.00 42 1009.9
20260507173008 17 10 4.8 6.4 0.00 0.00 0.00 43 1010.2
20260507172503 17 107 3.2 11.3 0.00 0.00 0.00 40 1010.4
20260507172000 17 72 4.8 9.7 0.00 0.00 0.00 45 1010.4
20260507171455 17 321 3.2 11.3 0.00 0.00 0.00 43 1010.6
20260507170953 17 27 4.8 9.7 0.00 0.00 0.00 43 1010.7
20260507170450 16 29 1.6 9.7 0.00 0.00 0.00 48 1010.6
20260507165946 17 307 4.8 11.3 0.00 0.00 0.00 45 1010.9
20260507165442 17 132 4.8 12.9 0.00 0.00 0.00 47 1010.5
20260507164938 16 339 4.8 9.7 0.00 0.00 0.00 42 1010.9
20260507164435 16 187 3.2 11.3 0.00 0.00 0.00 46 1011.0
20260507163932 16 84 4.8 9.7 0.00 0.00 0.00 42 1011.0
20260507163430 16 130 6.4 14.5 0.00 0.00 0.00 43 1010.8
20260507162927 16 11 3.2 14.5 0.00 0.00 0.00 41 1011.0
20260507162421 16 245 12.9 14.5 0.00 0.00 0.00 44 1011.1
20260507161920 15 295 6.4 19.3 0.00 0.00 0.00 42 1011.2
20260507161415 15 322 3.2 8.0 0.00 0.00 0.00 49 1011.2
20260507160912 16 353 0.0 11.3 0.00 0.00 0.00 40 1011.4
20260507160408 16 152 3.2 12.9 0.00 0.00 0.00 45 1011.6
20260507155904 16 32 8.0 9.7 0.00 0.00 0.00 45 1011.6
20260507155400 15 333 4.8 12.9 0.00 0.00 0.00 45 1011.5
20260507154857 15 82 0.0 16.1 0.00 0.00 0.00 47 1011.8
20260507154354 15 36 3.2 11.3 0.00 0.00 0.00 45 1011.8
20260507153851 15 124 6.4 14.5 0.00 0.00 0.00 41 1011.6
20260507153348 15 106 0.0 12.9 0.00 0.00 0.00 45 1011.3
20260507152844 15 264 6.4 14.5 0.00 0.00 0.00 45 1011.6
20260507152341 15 25 3.2 8.0 0.00 0.00 0.00 48 1011.8
20260507151837 15 348 4.8 12.9 0.00 0.00 0.00 48 1012.2
20260507151333 14 286 3.2 14.5 0.00 0.00 0.00 51 1011.9
20260507150830 14 47 3.2 11.3 0.00 0.00 0.00 48 1012.1
20260507150326 14 312 4.8 9.7 0.00 0.00 0.00 50 1012.3
20260507145822 14 334 8.0 14.5 0.00 0.00 0.00 47 1012.3
20260507145319 15 318 4.8 9.7 0.00 0.00 0.00 49 1012.6
20260507144816 15 101 3.2 9.7 0.00 0.00 0.00 46 1012.3
20260507144314 15 25 4.8 12.9 0.00 0.00 0.00 47 1012.6
20260507143810 15 187 1.6 8.0 0.00 0.00 0.00 48 1012.6
20260507143308 15 89 3.2 6.4 0.00 0.00 0.00 51 1012.4
20260507142803 13 82 3.2 8.0 0.00 0.00 0.00 48 1012.8
20260507142300 13 56 4.8 11.3 0.00 0.00 0.00 51 1012.7
20260507141756 13 34 6.4 12.9 0.00 0.00 0.00 48 1013.0
20260507141248 14 336 3.2 11.3 0.00 0.00 0.00 50 1012.8
20260507140744 13 331 1.6 14.5 0.00 0.00 0.00 51 1012.8
20260507140242 14 354 4.8 14.5 0.00 0.00 0.00 51 1013.0
20260507135738 14 315 6.4 17.7 0.00 0.00 0.00 47 1013.0
20260507135236 13 32 0.0 14.5 0.00 0.00 0.00 51 1013.1
20260507134732 12 36 6.4 17.7 0.00 0.00 0.00 52 1013.0
20260507134228 13 264 6.4 14.5 0.00 0.00 0.00 51 1013.2
20260507133724 12 311 0.0 14.5 0.00 0.00 0.00 53 1012.9
20260507133221 12 286 3.2 9.7 0.00 0.00 0.00 54 1013.0
20260507132719 12 339 4.8 14.5 0.00 0.00 0.00 53 1012.9
20260507132215 12 295 4.8 16.1 0.00 0.00 0.00 52 1013.1
20260507131712 12 315 3.2 12.9 0.00 0.00 0.00 54 1013.4
20260507131210 12 327 6.4 14.5 0.00 0.00 0.00 54 1013.2
20260507130706 12 297 6.4 14.5 0.00 0.00 0.00 53 1013.2
20260507130204 12 355 4.8 14.5 0.00 0.00 0.00 55 1013.1
20260507125702 11 318 8.0 14.5 0.00 0.00 0.00 54 1013.3
20260507125200 11 277 3.2 11.3 0.00 0.00 0.00 56 1012.9
20260507124656 11 18 3.2 11.3 0.00 0.00 0.00 57 1013.3
20260507124153 11 299 4.8 16.1 0.00 0.00 0.00 55 1013.4
20260507123652 11 320 3.2 11.3 0.00 0.00 0.00 55 1013.4
20260507123149 11 272 3.2 9.7 0.00 0.00 0.00 59 1013.4
20260507122644 11 290 3.2 6.4 0.00 0.00 0.00 59 1013.3
20260507122139 11 303 1.6 9.7 0.00 0.00 0.00 59 1013.3
20260507121636 11 11 1.6 8.0 0.00 0.00 0.00 60 1013.2
20260507121132 11 311 0.0 6.4 0.00 0.00 0.00 59 1013.2
20260507120628 11 340 3.2 8.0 0.00 0.00 0.00 59 1013.1
20260507120125 11 74 1.6 6.4 0.00 0.00 0.00 60 1013.2
20260507115621 11 294 3.2 9.7 0.00 0.00 0.00 61 1013.0
20260507115117 11 81 0.0 6.4 0.00 0.00 0.00 61 1013.0
20260507114613 11 67 0.0 4.8 0.00 0.00 0.00 63 1013.0
20260507114110 11 117 0.0 4.8 0.00 0.00 0.00 64 1013.0
20260507113608 11 295 3.2 6.4 0.00 0.00 0.00 63 1013.0
20260507113105 11 68 1.6 6.4 0.00 0.00 0.00 64 1013.0
20260507112603 11 69 0.0 4.8 0.00 0.00 0.00 65 1013.0
20260507112059 11 74 1.6 6.4 0.00 0.00 0.00 66 1012.7
20260507111556 11 297 3.2 4.8 0.00 0.00 0.00 66 1012.9
20260507111053 11 43 1.6 8.0 0.00 0.00 0.00 66 1013.1
20260507110549 11 328 3.2 4.8 0.00 0.00 0.00 66 1012.8
20260507110046 11 294 3.2 4.8 0.00 0.00 0.00 66 1012.9
20260507105542 11 321 3.2 4.8 0.00 0.00 0.00 66 1013.1
20260507105038 11 13 1.6 8.0 0.00 0.00 0.00 65 1012.6
20260507104536 11 302 4.8 6.4 0.00 0.00 0.00 65 1012.6
20260507104032 11 306 1.6 9.7 0.00 0.00 0.00 65 1012.6
20260507103528 11 300 3.2 9.7 0.00 0.00 0.00 65 1012.3
20260507103025 11 323 4.8 11.3 0.00 0.00 0.00 66 1012.0
20260507102522 11 294 6.4 11.3 0.00 0.00 0.00 65 1012.2
20260507102018 11 325 6.4 11.3 0.00 0.00 0.00 64 1012.1
20260507101514 11 342 6.4 9.7 0.00 0.00 0.00 64 1012.4
20260507101010 11 14 4.8 9.7 0.00 0.00 0.00 65 1012.2
20260507100508 11 326 0.0 4.8 0.00 0.00 0.00 67 1012.2
20260507100006 11 300 1.6 8.0 0.00 0.00 0.00 66 1012.4
20260507095503 11 228 0.0 9.7 0.00 0.00 0.00 67 1012.0
20260507094959 11 257 3.2 6.4 0.00 0.00 0.00 67 1012.1
20260507094456 11 279 3.2 11.3 0.00 0.00 0.00 67 1012.0
20260507093953 11 293 6.4 8.0 0.00 0.00 0.00 67 1011.8
20260507093450 11 314 4.8 8.0 0.00 0.00 0.00 66 1011.7
20260507092949 11 304 1.6 8.0 0.00 0.00 0.00 66 1011.6
20260507092445 11 298 6.4 8.0 0.00 0.00 0.00 65 1012.0
20260507091941 11 313 0.0 6.4 0.00 0.00 0.00 65 1012.0
20260507091438 11 320 9.7 12.9 0.00 0.00 0.00 65 1012.0
20260507090934 11 326 3.2 6.4 0.00 0.00 0.00 67 1012.2
20260507090430 11 272 1.6 4.8 0.00 0.00 0.00 68 1012.2
20260507085927 11 312 6.4 9.7 0.00 0.00 0.00 69 1012.3
20260507085424 11 170 1.6 8.0 0.00 0.00 0.00 70 1012.1
20260507084921 11 356 3.2 6.4 0.00 0.00 0.00 72 1012.1
20260507084418 11 340 1.6 4.8 0.00 0.00 0.00 72 1012.0
20260507083915 11 281 3.2 6.4 0.00 0.00 0.00 72 1012.2
20260507083411 11 269 0.0 6.4 0.00 0.00 0.00 73 1011.9
20260507082908 11 268 3.2 8.0 0.00 0.00 0.00 73 1011.7
20260507082403 11 341 4.8 11.3 0.00 0.00 0.00 72 1011.9
20260507081901 12 31 1.6 9.7 0.00 0.00 0.00 72 1011.9
20260507081357 12 164 1.6 8.0 0.00 0.00 0.00 73 1012.1
20260507080854 12 310 4.8 12.9 0.00 0.00 0.00 71 1011.7
20260507080350 12 307 4.8 8.0 0.00 0.00 0.00 72 1011.5
20260507075845 12 298 4.8 12.9 0.00 0.00 0.00 73 1011.4
20260507075341 12 0 1.6 14.5 0.00 0.00 0.00 72 1011.3
20260507074838 12 303 4.8 14.5 0.00 0.00 0.00 73 1011.3
20260507074335 12 305 9.7 11.3 0.00 0.00 0.00 74 1011.5
20260507073832 12 328 6.4 9.7 0.00 0.00 0.00 74 1011.3
20260507073329 12 348 3.2 8.0 0.00 0.00 0.00 75 1011.7
20260507072826 12 98 0.0 4.8 0.00 0.00 0.00 75 1011.2
20260507072324 12 107 0.0 9.7 0.00 0.00 0.00 75 1011.2
20260507071821 12 127 1.6 8.0 0.00 0.00 0.00 75 1011.1
20260507071318 12 9 3.2 9.7 0.00 0.00 0.00 75 1011.2
20260507070814 12 247 1.6 8.0 0.00 0.00 0.00 75 1011.1
20260507070312 12 67 3.2 6.4 0.00 0.00 0.00 75 1011.3
20260507065808 12 303 8.0 11.3 0.00 0.00 0.00 74 1011.5
20260507065306 12 44 0.0 19.3 0.00 0.00 0.00 74 1011.7
20260507064802 12 108 0.0 6.4 0.00 0.00 0.00 75 1011.5
20260507064301 12 342 1.6 8.0 0.00 0.00 0.00 75 1011.5
20260507063758 12 296 3.2 8.0 0.00 0.00 0.00 75 1011.7
20260507063255 12 56 4.8 4.8 0.00 0.00 0.00 76 1011.9
20260507062752 12 24 1.6 6.4 0.00 0.00 0.00 76 1011.8
20260507062249 12 318 4.8 12.9 0.00 0.00 0.00 75 1011.9
20260507061747 12 315 4.8 9.7 0.00 0.00 0.00 76 1011.9
20260507061244 12 351 0.0 6.4 0.00 0.00 0.00 77 1011.9
20260507060743 12 299 6.4 8.0 0.00 0.00 0.00 76 1011.9
20260507060239 12 281 0.0 12.9 0.00 0.00 0.00 76 1011.9
20260507055735 12 326 3.2 4.8 0.00 0.00 0.00 77 1011.9
20260507055231 12 5 3.2 9.7 0.00 0.00 0.00 77 1012.2
20260507054727 12 320 1.6 8.0 0.00 0.00 0.00 77 1011.9
20260507054224 12 77 1.6 9.7 0.00 0.00 0.00 77 1011.7
20260507053721 12 24 0.0 8.0 0.00 0.00 0.00 77 1011.8
20260507053219 12 357 3.2 6.4 0.00 0.00 0.00 77 1011.4
20260507052718 12 50 1.6 6.4 0.00 0.00 0.00 77 1011.5
20260507052213 12 24 3.2 4.8 0.00 0.00 0.00 78 1011.5
20260507051712 12 260 1.6 4.8 0.00 0.00 0.00 79 1011.6
20260507051208 12 32 3.2 12.9 0.00 0.00 0.00 78 1011.5
20260507050705 12 280 3.2 8.0 0.00 0.00 0.00 78 1011.3
20260507050202 12 332 4.8 8.0 0.00 0.00 0.00 80 1011.4
20260507045659 12 325 4.8 8.0 0.00 0.00 0.00 80 1011.5
20260507045156 12 15 3.2 6.4 0.00 0.00 0.00 81 1011.2
20260507044652 12 73 4.8 8.0 0.00 0.00 0.00 81 1011.3
20260507044149 12 3 3.2 8.0 0.00 0.00 0.00 81 1011.2
20260507043645 13 12 3.2 11.3 0.00 0.00 0.00 81 1011.5
20260507043142 13 286 8.0 12.9 0.00 0.00 0.00 82 1011.5
20260507042638 13 51 8.0 8.0 0.00 0.00 0.00 82 1011.0
20260507042134 13 19 4.8 8.0 0.00 0.00 0.00 81 1011.2
20260507041631 13 298 6.4 8.0 0.00 0.00 0.00 82 1011.2
20260507041127 13 344 3.2 6.4 0.00 0.00 0.00 82 1011.5
20260507040625 13 321 4.8 14.5 0.00 0.00 0.00 81 1011.4
20260507040121 13 299 3.2 4.8 0.00 0.00 0.00 82 1011.8
20260507035616 13 319 4.8 8.0 0.00 0.41 0.41 81 1011.9
20260507035113 13 329 1.6 4.8 0.00 0.41 0.41 82 1011.6
20260507034610 13 329 1.6 6.4 0.00 0.41 0.41 81 1011.4
20260507034107 13 313 4.8 6.4 0.00 0.41 0.41 81 1011.3
20260507033606 13 303 4.8 8.0 0.00 0.41 0.41 81 1011.5
20260507033103 13 55 3.2 9.7 0.00 0.41 0.41 82 1011.5
20260507032600 13 49 1.6 11.3 0.00 0.41 0.41 83 1011.3
20260507032056 13 80 3.2 8.0 0.00 0.41 0.41 83 1011.5
20260507031552 13 298 6.4 9.7 0.00 0.41 0.41 84 1011.8
20260507031049 13 52 6.4 8.0 0.00 0.41 0.41 84 1011.7
20260507030546 13 247 1.6 9.7 0.00 0.41 0.41 85 1011.3
20260507030044 13 207 4.8 12.9 0.00 0.41 0.41 85 1011.5
20260507025541 13 40 8.0 16.1 0.00 0.41 0.41 85 1011.6
20260507025038 13 325 3.2 8.0 0.00 0.41 0.41 85 1011.3
20260507024536 13 337 1.6 9.7 0.00 0.41 0.41 84 1011.3
20260507024032 13 333 4.8 12.9 0.00 0.41 0.41 84 1011.1
20260507023528 13 329 6.4 11.3 0.00 0.41 0.41 84 1011.3
20260507023026 13 189 3.2 9.7 0.00 0.41 0.41 85 1011.0
20260507022522 14 258 0.0 4.8 0.00 0.41 0.41 84 1011.0
20260507022018 14 8 3.2 6.4 0.00 0.41 0.41 84 1011.2
20260507021514 14 30 0.0 11.3 0.00 0.41 0.41 83 1011.3
20260507021011 14 42 1.6 8.0 0.00 0.41 0.41 83 1010.8
20260507020508 14 22 0.0 6.4 0.00 0.41 0.41 82 1010.7
20260507020005 14 324 3.2 9.7 0.00 0.41 0.41 83 1010.8
20260507015503 15 351 6.4 20.9 0.00 0.41 0.41 83 1010.6
20260507015000 15 334 3.2 11.3 0.00 0.41 0.41 83 1010.7
20260507014457 15 218 1.6 4.8 0.00 0.41 0.41 82 1010.6
20260507013952 15 20 0.0 4.8 0.00 0.41 0.41 81 1010.8
20260507013449 15 283 3.2 14.5 0.00 0.41 0.41 81 1010.7
20260507012947 15 276 4.8 9.7 0.00 0.41 0.41 81 1010.6
20260507012443 15 328 3.2 8.0 0.00 0.41 0.41 82 1010.4
20260507011940 15 344 1.6 6.4 0.00 0.41 0.41 83 1010.5
20260507011437 15 12 3.2 6.4 0.00 0.41 0.41 83 1010.5
20260507010932 15 44 0.0 3.2 0.00 0.41 0.41 84 1010.4
20260507010427 15 309 3.2 3.2 0.00 0.41 0.41 82 1010.4
20260507005924 15 35 3.2 8.0 0.00 0.41 0.41 82 1010.2
20260507005421 16 1 3.2 8.0 0.00 0.41 0.41 82 1010.2
20260507004918 16 39 3.2 6.4 0.00 0.41 0.41 81 1010.4
20260507004414 16 259 3.2 8.0 0.00 0.41 0.41 80 1010.7
20260507003912 16 283 1.6 9.7 0.00 0.41 0.41 82 1010.7
20260507003407 16 308 1.6 6.4 0.00 0.41 0.41 83 1010.3
20260507002903 16 13 3.2 9.7 0.00 0.41 0.41 84 1010.0
20260507002359 16 17 0.0 8.0 0.00 0.41 0.41 84 1010.2
20260507001856 16 146 0.0 3.2 0.00 0.41 0.41 84 1010.3
20260507001353 16 304 0.0 6.4 0.00 0.41 0.41 82 1010.2
20260507000850 16 291 4.8 8.0 0.00 0.41 0.41 83 1010.0
20260507000345 16 31 4.8 8.0 0.00 0.41 0.41 85 1010.0
20260506235842 16 345 4.8 11.3 0.00 0.41 0.41 85 1009.9
20260506235339 16 285 3.2 6.4 0.00 0.41 0.41 88 1009.9
20260506234834 16 41 3.2 6.4 0.00 0.41 0.41 89 1009.7
20260506234332 17 79 3.2 4.8 0.00 0.41 0.41 88 1009.4
20260506233830 17 352 3.2 11.3 0.00 0.41 0.41 88 1009.6
20260506233325 17 338 3.2 4.8 0.00 0.41 0.41 89 1009.8
20260506232823 17 286 4.8 6.4 0.00 0.41 0.41 90 1009.0
20260506232318 17 229 0.0 12.9 0.05 0.41 0.41 90 1008.6
20260506231815 17 26 3.2 9.7 0.05 0.41 0.41 88 1008.7
20260506231313 17 339 1.6 4.8 0.00 0.38 0.38 89 1009.1
20260506230810 17 25 0.0 3.2 0.00 0.38 0.38 89 1008.6
20260506230307 18 229 0.0 4.8 0.00 0.38 0.38 89 1008.7
20260506225803 18 344 0.0 4.8 0.00 0.38 0.38 89 1008.8
20260506225300 18 268 3.2 4.8 0.00 0.38 0.38 88 1008.6
20260506224756 18 217 0.0 3.2 0.00 0.38 0.38 87 1008.8
20260506224254 18 74 3.2 6.4 0.00 0.38 0.38 87 1008.9
20260506223749 18 335 1.6 6.4 0.00 0.38 0.38 87 1008.9
20260506223240 18 342 4.8 8.0 0.00 0.38 0.38 85 1009.1
20260506222737 18 134 0.0 6.4 0.00 0.38 0.38 85 1008.8
20260506222232 18 0 0.0 6.4 0.00 0.38 0.38 86 1008.7
20260506221731 18 279 1.6 4.8 0.00 0.38 0.38 88 1008.7
20260506221228 19 248 3.2 8.0 0.00 0.38 0.38 89 1008.6
20260506220725 19 298 3.2 6.4 0.00 0.38 0.38 90 1008.4
20260506220220 19 269 0.0 3.2 0.00 0.38 0.38 91 1008.5
20260506215717 19 279 0.0 4.8 0.00 0.38 0.38 91 1008.5
20260506215213 19 316 3.2 6.4 0.00 0.38 0.38 90 1008.3
20260506214709 18 332 1.6 6.4 0.00 0.38 0.38 93 1008.1
20260506214206 19 272 1.6 4.8 0.00 0.38 0.38 94 1008.1
20260506213705 19 122 0.0 3.2 0.00 0.38 0.38 95 1008.2
20260506213202 18 3 1.6 8.0 0.00 0.38 0.38 95 1008.2
20260506212659 19 322 3.2 12.9 0.00 0.38 0.38 95 1008.1
20260506212154 20 327 3.2 8.0 0.00 0.38 0.38 94 1008.0
20260506211650 20 54 0.0 1.6 0.00 0.38 0.38 90 1007.8
20260506211147 19 271 1.6 4.8 0.00 0.38 0.38 89 1008.2
20260506210644 20 89 0.0 1.6 0.00 0.38 0.38 91 1007.7
20260506210140 19 44 0.0 3.2 0.00 0.38 0.38 92 1007.6
20260506205638 19 347 0.0 1.6 0.00 0.38 0.38 92 1007.5
20260506205137 19 202 0.0 4.8 0.00 0.38 0.38 93 1007.3
20260506204636 19 135 0.0 3.2 0.00 0.38 0.38 93 1007.1
20260506204132 19 99 0.0 4.8 0.00 0.38 0.38 94 1007.3
20260506203631 19 124 0.0 4.8 0.00 0.38 0.38 94 1007.4
20260506203127 19 110 0.0 1.6 0.00 0.38 0.38 96 1007.3
20260506202625 18 96 0.0 3.2 0.00 0.38 0.38 96 1007.3
20260506202121 18 95 0.0 4.8 0.00 0.38 0.38 96 1007.4
20260506201618 18 116 0.0 3.2 0.00 0.38 0.38 96 1007.3
20260506201115 18 168 0.0 3.2 0.00 0.38 0.38 96 1007.1
20260506200611 18 49 1.6 4.8 0.00 0.38 0.38 96 1007.4
20260506200108 18 94 3.2 3.2 0.00 0.38 0.38 96 1007.3
20260506195604 18 101 0.0 3.2 0.00 0.38 0.38 97 1007.4
20260506195101 18 89 0.0 3.2 0.00 0.38 0.38 97 1007.0
20260506194559 18 116 0.0 4.8 0.00 0.38 0.38 97 1007.4
20260506194055 18 180 0.0 1.6 0.00 0.38 0.38 97 1007.6
20260506193553 18 38 0.0 1.6 0.00 0.38 0.38 97 1007.3
20260506193050 18 39 1.6 3.2 0.00 0.38 0.38 96 1007.3
20260506192547 18 328 0.0 1.6 0.00 0.38 0.38 96 1007.2
20260506192042 18 135 0.0 3.2 0.00 0.38 0.38 96 1007.5
20260506191539 18 89 0.0 4.8 0.00 0.38 0.38 96 1007.3
20260506191035 18 60 0.0 4.8 0.00 0.38 0.38 95 1007.7
20260506190532 18 150 0.0 3.2 0.00 0.38 0.38 95 1007.7
20260506190030 18 69 1.6 3.2 0.00 0.38 0.38 95 1007.3
20260506185527 18 106 1.6 3.2 0.05 0.38 0.38 95 1007.5
20260506185023 18 123 3.2 3.2 0.13 0.38 0.38 96 1007.7
20260506184521 18 22 0.0 1.6 0.18 0.38 0.38 96 1007.6
20260506184018 18 34 0.0 4.8 0.13 0.38 0.38 95 1007.5